Total_Precipitation_Accumulation
0.00 0.00 0.02 0.03 0.02 0.01 0.00 0.00 0.00 0.00 0.01 0.01 0.00 0.00 0.00 0.00 0.00 0.01 0.01 0.03 0.06 0.08 0.06 0.09 0.13 0.09 0.05 0.04 0.03 0.03 0.02 0.01 0.02 0.02 0.04 0.04 0.04 0.02 0.01 0.00 0.00 0.01 0.02
0.00 0.00 0.01 0.02 0.04 0.03 0.03 0.01 0.00 0.01 0.01 0.01 0.01 0.01 0.01 0.01 0.02 0.04 0.04 0.08 0.09 0.09 0.08 0.06 0.03 0.02 0.01 0.01 0.00 0.00 0.00 0.00 0.01 0.01 0.00 0.01 0.02 0.02 0.01 0.01 0.01 0.01 0.01
0.00 0.00 0.01 0.01 0.03 0.04 0.03 0.01 0.00 0.01 0.00 0.01 0.02 0.03 0.01 0.02 0.03 0.06 0.07 0.06 0.09 0.08 0.06 0.03 0.01 0.00 0.00 0.00 0.00 0.00 0.00 0.00 0.00 0.00 0.00 0.00 0.00 0.02 0.00 0.01 0.01 0.01 0.00
0.00 0.00 0.00 0.01 0.01 0.02 0.02 0.00 0.00 0.00 0.01 0.01 0.03 0.03 0.05 0.04 0.09 0.19 0.09 0.07 0.10 0.05 0.01 0.00 0.00 0.00 0.00 0.00 0.01 0.01 0.00 0.00 0.00 0.00 0.00 0.00 0.02 0.02 0.01 0.01 0.02 0.01 0.00
0.00 0.00 0.00 0.01 0.00 0.01 0.01 0.00 0.00 0.01 0.01 0.01 0.04 0.07 0.08 0.11 0.25 0.27 0.16 0.09 0.10 0.01 0.00 0.01 0.01 0.03 0.04 0.08 0.10 0.09 0.00 0.00 0.00 0.00 0.00 0.00 0.00 0.01 0.00 0.00 0.00 0.00 0.00
0.00 0.00 0.01 0.01 0.00 0.00 0.01 0.01 0.01 0.01 0.01 0.01 0.05 0.10 0.12 0.18 0.11 0.05 0.03 0.01 0.01 0.01 0.02 0.03 0.07 0.12 0.08 0.05 0.03 0.01 0.00 0.00 0.00 0.00 0.00 0.02 0.01 0.03 0.02 0.00 0.00 0.00 0.00
0.00 0.00 0.02 0.01 0.00 0.00 0.01 0.01 0.00 0.00 0.00 0.00 0.02 0.05 0.11 0.07 0.01 0.00 0.00 0.00 0.03 0.04 0.04 0.28 0.23 0.21 0.18 0.04 0.01 0.05 0.02 0.00 0.01 0.00 0.00 0.01 0.10 0.06 0.04 0.04 0.04 0.03 0.03
0.01 0.03 0.03 0.01 0.00 0.01 0.01 0.01 0.00 0.00 0.00 0.02 0.05 0.07 0.03 0.01 0.00 0.00 0.00 0.06 0.14 0.26 0.14 0.09 0.20 0.57 0.43 0.14 0.02 0.12 0.05 0.02 0.00 0.00 0.00 0.01 0.18 0.08 0.07 0.07 0.13 0.08 0.04
0.01 0.04 0.03 0.01 0.01 0.01 0.01 0.01 0.00 0.00 0.00 0.03 0.03 0.03 0.00 0.00 0.00 0.02 0.06 0.07 0.03 0.01 0.02 0.05 0.13 0.17 0.10 0.12 0.04 0.03 0.02 0.01 0.00 0.00 0.00 0.02 0.15 0.03 0.04 0.05 0.03 0.01 0.00
0.04 0.04 0.02 0.01 0.01 0.01 0.01 0.03 0.00 0.00 0.00 0.01 0.00 0.00 0.00 0.00 0.01 0.04 0.04 0.02 0.01 0.02 0.02 0.03 0.05 0.07 0.06 0.04 0.09 0.05 0.01 0.00 0.00 0.00 0.00 0.04 0.15 0.05 0.05 0.03 0.01 0.01 0.01
0.09 0.05 0.02 0.01 0.01 0.01 0.01 0.03 0.00 0.00 0.00 0.00 0.00 0.00 0.00 0.00 0.01 0.00 0.01 0.00 0.02 0.03 0.03 0.02 0.03 0.05 0.07 0.03 0.01 0.02 0.01 0.01 0.00 0.00 0.00 0.09 0.11 0.06 0.02 0.00 0.01 0.00 0.00
0.08 0.06 0.02 0.01 0.01 0.01 0.02 0.01 0.00 0.00 0.00 0.00 0.00 0.00 0.00 0.00 0.00 0.00 0.01 0.01 0.02 0.02 0.01 0.00 0.00 0.00 0.00 0.00 0.00 0.00 0.00 0.00 0.01 0.01 0.00 0.05 0.07 0.02 0.04 0.01 0.01 0.00 0.00
0.05 0.06 0.02 0.02 0.02 0.02 0.02 0.00 0.00 0.00 0.00 0.00 0.00 0.00 0.00 0.00 0.00 0.00 0.00 0.00 0.00 0.00 0.00 0.00 0.00 0.00 0.00 0.00 0.00 0.00 0.00 0.00 0.00 0.00 0.00 0.02 0.10 0.04 0.02 0.01 0.04 0.01 0.00
0.06 0.06 0.02 0.01 0.02 0.02 0.01 0.01 0.00 0.00 0.00 0.00 0.00 0.00 0.00 0.00 0.00 0.00 0.00 0.00 0.00 0.00 0.00 0.00 0.00 0.00 0.00 0.00 0.00 0.00 0.00 0.00 0.00 0.00 0.00 0.01 0.05 0.14 0.10 0.09 0.06 0.05 0.03
0.07 0.08 0.03 0.02 0.04 0.01 0.01 0.01 0.00 0.00 0.01 0.00 0.00 0.01 0.00 0.00 0.00 0.00 0.00 0.00 0.00 0.00 0.00 0.00 0.00 0.00 0.00 0.00 0.00 0.00 0.00 0.00 0.01 0.00 0.00 0.01 0.02 0.05 0.11 0.21 0.27 0.26 0.13
0.07 0.12 0.04 0.03 0.03 0.01 0.01 0.01 0.00 0.00 0.01 0.00 0.00 0.03 0.00 0.00 0.00 0.00 0.00 0.00 0.00 0.00 0.00 0.00 0.00 0.00 0.00 0.00 0.00 0.00 0.00 0.00 0.01 0.00 0.00 0.00 0.00 0.01 0.03 0.06 0.12 0.25 0.18
0.03 0.10 0.07 0.04 0.05 0.02 0.03 0.01 0.01 0.01 0.01 0.00 0.00 0.01 0.01 0.00 0.00 0.00 0.00 0.00 0.00 0.00 0.00 0.00 0.00 0.00 0.00 0.00 0.00 0.00 0.00 0.00 0.00 0.00 0.00 0.00 0.00 0.00 0.01 0.03 0.21 0.72 0.70
0.03 0.10 0.13 0.10 0.03 0.02 0.04 0.03 0.08 0.06 0.03 0.01 0.00 0.00 0.00 0.00 0.00 0.00 0.00 0.00 0.00 0.00 0.00 0.00 0.00 0.00 0.00 0.00 0.00 0.00 0.00 0.00 0.00 0.00 0.00 0.00 0.01 0.00 0.00 0.00 0.07 0.70 1.12
0.02 0.08 0.16 0.20 0.07 0.01 0.02 0.02 0.06 0.06 0.03 0.01 0.01 0.00 0.00 0.00 0.00 0.00 0.00 0.00 0.00 0.00 0.00 0.00 0.00 0.00 0.00 0.00 0.00 0.00 0.00 0.00 0.00 0.00 0.00 0.00 0.01 0.02 0.00 0.00 0.00 0.02 0.19
0.03 0.05 0.12 0.23 0.19 0.07 0.05 0.07 0.07 0.05 0.03 0.02 0.01 0.00 0.00 0.00 0.00 0.00 0.00 0.00 0.00 0.00 0.00 0.00 0.00 0.00 0.00 0.00 0.00 0.00 0.00 0.00 0.00 0.00 0.00 0.00 0.00 0.00 0.00 0.00 0.00 0.00 0.02
0.03 0.05 0.11 0.16 0.20 0.16 0.10 0.07 0.09 0.05 0.02 0.01 0.01 0.01 0.00 0.00 0.00 0.00 0.00 0.00 0.00 0.00 0.00 0.00 0.00 0.00 0.00 0.00 0.00 0.00 0.00 0.00 0.00 0.00 0.00 0.00 0.00 0.00 0.00 0.00 0.00 0.00 0.00
0.02 0.03 0.08 0.12 0.24 0.34 0.28 0.15 0.07 0.03 0.04 0.03 0.02 0.01 0.00 0.00 0.00 0.00 0.00 0.00 0.00 0.00 0.00 0.00 0.00 0.00 0.00 0.00 0.00 0.00 0.00 0.00 0.00 0.00 0.00 0.00 0.00 0.00 0.00 0.00 0.00 0.00 0.00
0.02 0.02 0.04 0.08 0.17 0.28 0.30 0.16 0.11 0.06 0.08 0.07 0.03 0.01 0.00 0.00 0.00 0.00 0.00 0.00 0.00 0.00 0.00 0.00 0.00 0.00 0.00 0.00 0.00 0.00 0.00 0.00 0.00 0.00 0.00 0.00 0.00 0.00 0.00 0.00 0.00 0.00 0.00
0.02 0.01 0.04 0.06 0.17 0.15 0.18 0.21 0.15 0.14 0.07 0.06 0.05 0.02 0.00 0.00 0.00 0.00 0.00 0.00 0.00 0.00 0.00 0.00 0.00 0.00 0.00 0.00 0.00 0.00 0.00 0.00 0.00 0.00 0.00 0.00 0.00 0.00 0.00 0.00 0.00 0.00 0.00
0.02 0.01 0.02 0.05 0.09 0.26 0.17 0.21 0.25 0.31 0.21 0.12 0.13 0.08 0.03 0.01 0.00 0.00 0.00 0.00 0.00 0.00 0.00 0.00 0.00 0.00 0.00 0.00 0.00 0.00 0.00 0.00 0.00 0.00 0.00 0.00 0.00 0.00 0.00 0.00 0.00 0.00 0.00
0.04 0.03 0.02 0.05 0.05 0.18 0.33 0.26 0.20 0.26 0.40 0.28 0.14 0.12 0.07 0.02 0.00 0.00 0.00 0.00 0.00 0.00 0.00 0.00 0.00 0.00 0.00 0.00 0.00 0.00 0.00 0.00 0.00 0.00 0.00 0.00 0.00 0.00 0.00 0.00 0.00 0.00 0.00